This is the latest recevied weather packets stored in our database for station/object KE5AKC. If no packets are shown the sender has not sent any weather packets the latest 10 day(s).
| Time | Temp. | Humidity | Pressure | Rain* | Wind** | Luminosity | Snow |
|---|---|---|---|---|---|---|---|
| 1777688216 | 13.89° C | 96% | 1014.4 hPa | 0.25 mm | - | 0 W/m² | - |
| 1777687913 | 13.89° C | 96% | 1013.7 hPa | 0.25 mm | - | 0 W/m² | - |
| 1777687610 | 13.89° C | 96% | 1014.1 hPa | 0.25 mm | - | 0 W/m² | - |
| 1777687307 | 13.89° C | 96% | 1013.7 hPa | 0 mm | - | 0 W/m² | - |
| 1777687005 | 13.89° C | 96% | 1013.7 hPa | 2.29 mm | - | 0 W/m² | - |
| 1777686701 | 13.89° C | 96% | 1013.4 hPa | 2.29 mm | - | 0 W/m² | - |
| 1777686399 | 13.89° C | 96% | 1013.4 hPa | 2.03 mm | - | 0 W/m² | - |
| 1777686096 | 13.89° C | 96% | 1013 hPa | 1.78 mm | - | 0 W/m² | - |
| 1777685791 | 13.89° C | 96% | 1013.4 hPa | 1.52 mm | - | 0 W/m² | - |
| 1777685487 | 13.89° C | 96% | 1013.4 hPa | 1.27 mm | - | 0 W/m² | - |
| 1777685185 | 13.89° C | 96% | 1013.7 hPa | 1.02 mm | - | 0 W/m² | - |
| 1777684883 | 13.89° C | 96% | 1013.7 hPa | 1.02 mm | - | 0 W/m² | - |
| 1777684579 | 13.89° C | 96% | 1013.4 hPa | 1.02 mm | - | 0 W/m² | - |
| 1777684275 | 13.89° C | 96% | 1012.7 hPa | 0.76 mm | - | 0 W/m² | - |
| 1777683973 | 13.89° C | 96% | 1012.4 hPa | 0.51 mm | - | 0 W/m² | - |
| 1777683669 | 14.44° C | 96% | 1012.4 hPa | 0 mm | - | 1 W/m² | - |
| 1777683367 | 14.44° C | 96% | 1011.7 hPa | 3.3 mm | - | 1 W/m² | - |
| 1777683064 | 14.44° C | 96% | 1012 hPa | 2.54 mm | - | 1 W/m² | - |
| 1777682760 | 14.44° C | 96% | 1012 hPa | 2.03 mm | - | 2 W/m² | - |
| 1777682456 | 14.44° C | 96% | 1011.7 hPa | 1.52 mm | - | 3 W/m² | - |
| 1777682155 | 14.44° C | 96% | 1011.7 hPa | 1.27 mm | - | 3 W/m² | - |
| 1777681851 | 14.44° C | 96% | 1011.7 hPa | 1.27 mm | - | 3 W/m² | - |
| 1777681547 | 14.44° C | 96% | 1012.4 hPa | 1.02 mm | - | 4 W/m² | - |
| 1777681245 | 14.44° C | 96% | 1011.7 hPa | 0.76 mm | - | 5 W/m² | - |
| 1777680943 | 15° C | 96% | 1012.4 hPa | 0.51 mm | - | 10 W/m² | - |
* Rain latest hour (hover to see other rain measurements)
** Current wind speed in m/s (hover to see current wind gust speed)